User: anonymous   Login
Location: Caltech
(34.1382°N, 118.1253°W)
Time: 13:31:32
(UTC-07:00)
Language:

Cosmos 2333 Rocket - Orbit

View from above orbital plane
View from above orbital plane
View from above satellite
View from above satellite

Ground track
Ground track

The orbit data is extracted from the following two-line orbital elements,

1 24298U 96051B   17142.94096354 +.00000028 +00000-0 +41495-4 0  9998
2 24298 070.8494 115.3021 0018958 223.9553 136.0060 14.12496813067998
Epoch (UTC): 22 May 2017 22:34:59
Eccentricity: 0.0018958
inclination: 70.8494°
perigee height: 837 km
apogee height: 864 km
right ascension of ascending node: 115.3021°
argument of perigee: 223.9553°
revolutions per day: 14.12496813
mean anomaly at epoch: 136.0060°
orbit number at epoch: 6799

The dashed part of the orbit path shows where the satellite is in the earth's shadow,  

DLR